Regional Weather Roundup
Issued by NWS

Home | Current Version | Previous Version | Graphics & Text | Print | Product List | Glossary On
Versions: 1 2 3 4 5 6 7 8 9 10 11 12 13 14 15 16 17 18 19 20 21 22 23 24 25 26 27 28
000
ASUS45 KBOU 250507
RWRCO

WEATHER ROUNDUP FOR COLORADO
NATIONAL WEATHER SERVICE DENVER/BOULDER CO
1100 PM MDT FRI OCT 24 2014

NOTE: "FAIR" INDICATES FEW OR NO CLOUDS BELOW 12000 FEET WITH NO
SIGNIFICANT WEATHER AND/OR OBSTRUCTIONS TO VISIBILITY.

COZ001>005-013-030-031-250600-
...NORTHWEST COLORADO...

CITY           SKY/WX    TMP DP  RH WIND       PRES   REMARKS
CRAIG          CLEAR     40  28  62 CALM      30.32R
HAYDEN         CLEAR     45  25  45 E9        30.33R
MEEKER         CLEAR     43  30  60 CALM      30.33R
MOUNT WERNER   NOT AVBL
STEAMBOAT SPGS CLEAR     43  28  54 NW3       30.35R
WALDEN         CLEAR     50  19  29 S9        30.40R
$$

COZ006>008-011-250600-
...WEST CENTRAL VALLEYS...

CITY           SKY/WX    TMP DP  RH WIND       PRES   REMARKS
GRAND JUNCTION CLEAR     48  34  58 E6        30.24S
MONTROSE       CLEAR     49  30  48 SE10      30.33R
EAGLE          CLEAR     43  28  56 CALM      30.40R
RIFLE          CLEAR     45  33  63 SE5       30.31R
DELTA          CLEAR     52  32  45 NE7       30.30R
NUCLA          CLEAR     52  25  35 E10       30.35S HAZE
$$

COZ017>023-064>068-250600-
...SOUTHWEST COLORADO...

CITY           SKY/WX    TMP DP  RH WIND       PRES   REMARKS
DURANGO        CLEAR     46  34  62 N3        30.37R
CORTEZ         CLEAR     43  30  60 E6        30.33R
PAGOSA SPRINGS CLEAR     42  32  67 CALM      30.44R
TELLURIDE      CLEAR     45  28  50 SE6       30.52S
WOLF CREEK PAS CLEAR     43  23  45 MISG        N/A
$$

COZ009-010-012-014-032>034-037-058>063-250600-
...CENTRAL COLORADO...

CITY           SKY/WX    TMP DP  RH WIND       PRES   REMARKS
ASPEN          PTCLDY    40  26  57 S8        30.43R
BUENA VISTA    PTCLDY    40  20  44 CALM      30.43S
COPPER MTN     CLEAR     45  16  31 SW6       30.66S
BERTHOUD PASS  FAIR      36  32  87 W22G29    30.66F
COTTONWOOD PAS PTCLDY    54  -4   9 W9        30.53S
GUNNISON       CLEAR     36  18  48 CALM      30.48R
KREMMLING      CLEAR     36  23  60 CALM        N/A
LEADVILLE      PTCLDY    32  20  61 E6        30.53S WCI  26
MONARCH PASS   CLEAR     41  12  30 W23       30.75S
SALIDA         PTCLDY    49  20  31 CALM      30.48R
SUNLIGHT       CLEAR     45  21  39 CALM      30.60S
WILKERSON PASS NOT AVBL
$$

COZ069>075-250600-
...SAN LUIS VALLEY/SANGRE DE CRISTO MOUNTAINS...

CITY           SKY/WX    TMP DP  RH WIND       PRES   REMARKS
ALAMOSA        PTCLDY    46  25  43 N8        30.40R
LA VETA PASS   CLEAR     48  21  34 S14       30.56S
SAGUACHE       PTCLDY    46  23  39 NW15      30.43S
$$

COZ035-036-038>040-250600-
...NORTHERN COLORADO FRONT RANGE...

CITY           SKY/WX    TMP DP  RH WIND       PRES   REMARKS
DENVER INTL AP CLEAR     55  27  34 SW9       30.21S
DMNS CITY PARK   N/A     55  29  36 S7        30.21S
AURORA         CLEAR     55  27  33 S12       30.23S
FRONT RANGE AP CLEAR     52  32  46 S12       30.21F
ERIE MUNI ARPT CLEAR     49  29  45 CALM      30.20R
BOULDER MUN AP CLEAR     68  19  15 SW15      30.19F
CENTENNIAL     CLEAR     51  29  42 SW7       30.24S
BROOMFIELD     NOT AVBL
FORT COLLINS   CLEAR     57  32  38 N3        30.20F
LONGMONT       CLEAR     53  28  39 CALM      30.21S
$$

COZ041-046-047-076>085-087-088-250600-
...PIKES PEAK/PALMER DIVIDE AND SOUTHERN FOOTHILLS...

CITY           SKY/WX    TMP DP  RH WIND       PRES   REMARKS
COLO. SPRINGS  CLEAR     49  28  44 N9        30.28F
A. F. ACADEMY  CLEAR     45  26  46 N9        30.31R
ELLICOTT       NOT AVBL
FALCON         CLEAR     49  24  37 W7        30.32S
FORT CARSON    CLEAR     53  27  35 NW10      30.25S
LIMON          PTCLDY    40  31  70 N6        30.23R
MONUMENT HILL  CLEAR     52  21  30 SW10      30.31S
TRINIDAD       CLEAR     51  32  48 NW8       30.25R
$$

COZ042>045-048>051-090-091-250600-
...NORTHEAST COLORADO...

CITY           SKY/WX    TMP DP  RH WIND       PRES   REMARKS
GREELEY ARPT   CLEAR     45  28  53 W6        30.19R
AKRON          CLEAR     58  24  27 S9        30.17R
BURLINGTON     CLEAR     49  31  49 W8        30.15S
WRAY           CLEAR     58  28  31 W3        30.12R
STERLING       CLEAR     45  34  65 CALM      30.13S
HOLYOKE        CLEAR     46  36  66 W6        30.13S
FORT MORGAN    CLEAR     52  25  35 W8        30.17R
$$

COZ086-089-092>099-250600-
...SOUTHEAST COLORADO...

CITY           SKY/WX    TMP DP  RH WIND       PRES   REMARKS
PUEBLO         CLEAR     53  31  42 SW3       30.18R
LA JUNTA       CLEAR     56  34  43 N5        30.13S
LAMAR          CLEAR     50  39  66 NE5       30.10S
SPRINGFIELD      N/A     54  37  52 SW9       30.16S
$$



USA.gov is the U.S. government's official web portal to all federal, state and local government web resources and services.